Location: Fontevrault
(47.1823°N, 0.0493°E)
Time: 16:22:22
(UTC+00:00)

CENTAUR R/B - Pass Details

Date: 16 June 2021
Orbit: 740 x 1447 km, 63.4° (Epoch: 17 July)

Event Time Altitude Azimuth Distance (km) Brightness Sun altitude
Rises 21:56:41 0° 250° (WSW) 3,496 5.5 -14.1°
Reaches altitude 10° 21:59:11 10° 258° (WSW) 2,648 5.0 -14.3°
Maximum altitude 22:05:01 40° 327° (NNW) 1,518 4.1 -14.8°
Drops below altitude 10° 22:11:56 10° 36° (NE) 3,139 5.5 -15.3°
Sets 22:15:10 0° 43° (NE) 4,216 6.1 -15.5°
